www.pogodaiklimat.ru

Погода и климат >> Архив погоды >> Россия >> Камчатский край >> Соболево


АРХИВ ПОГОДЫ в Соболево

Время (UTC), дата Ветер
(напр.,м/с)
 
Видим.   Явления Облачность Т
(С)
Тd
(С)
f
(%)
Тe
(С)
Тes
(С)
Комфортность P
(гПа)
Po
(гПа)
Тmin
(С)
Tmax
(С)
R
(мм)
R24
(мм)
S
(см)
21 15.04 СВ 2 50 км 10/0
[Ac und]
-4.5 -7.5 80 -9 -8 1019.4 1016.1 -9.1 62
00 16.04 В 1 50 км 10/0
[Ci fib]
+3.8 -6.1 48 +3 +13 опасность
простуды
1018.4 1015.3
03 16.04 ЮВ 2 50 км 10/0
[Ci fib]
+5.4 -5.5 45 +4 +12 1017.4 1014.3
06 16.04 В 2 50 км 10/4 600 м
[Sc Ac und]
+5.1 -1.8 61 +3 +4 1015.7 1012.6
09 16.04 В 2 10 км 10/0
[Ac und]
+4.5 -2.6 60 +2 +2 1015.5 1012.4 +6.6
12 16.04 В 3 10 км 10/0
[Ac und]
+4.9 -2.9 57 +2 +2 1015.2 1012.1
15 16.04 СВ 2 10 км 10/0
[Ac und]
+3.9 -2.9 61 +2 +2 1014.1 1011.0
18 16.04 СВ 4 10 км 10/0
[Ac und]
+5.0 -3.0 56 +1 +1 1012.7 1009.6
21 16.04 СВ 4 20 км 10/0
[Ac und]
+4.9 -2.7 58 +1 +2 1012.8 1009.7 +3.3 59
00 17.04 СВ 2 20 км 10/0
[Ac und]
+7.9 -0.9 54 +6 +9 1012.2 1009.1
03 17.04 ЮВ 1 20 км 8/0
[Ac trans]
+9.4 -3.6 40 +9 +16 1011.5 1008.4
06 17.04 В 1 50 км 6/0
[Ac trans]
+9.7 -4.1 38 +10 +12 1011.2 1008.1
09 17.04 З 3 50 км 10/0
[Ac und]
+3.2 -2.4 67 -0 -0 1013.4 1010.3 +10.4
12 17.04 З 1 20 км 10/0
[Ac und]
+2.2 -2.2 73 +1 +1 1015.4 1012.2
15 17.04 С 1 20 км 10/0
[Ac und]
+1.1 -2.2 79 -1 -1 1016.5 1013.3
18 17.04 СВ 1 20 км 10/0
[Ac und]
-1.5 -2.5 93 -4 -4 1018.3 1015.1
21 17.04 СВ 1 20 км 4/0
[Ac trans Ci fib]
+3.6 -2.3 65 +3 +5 1020.5 1017.4 -1.6 55
00 18.04 СЗ 1 50 км 3/0
[Ci fib]
+5.6 -3.0 54 +5 +17 опасность
простуды
1021.5 1018.4
03 18.04 З 3 50 км 3/0
[Ci fib]
+4.0 -3.3 59 +1 +9 опасность
простуды
1022.2 1019.1
06 18.04 З 2 50 км 3/0
[Ci fib]
+3.6 -3.4 60 +1 +5 1023.2 1020.1
09 18.04 ЮВ 1 50 км ясно -0.1 -3.5 78 -2 -2 1024.0 1020.8 +6.9
12 18.04 штиль 0 20 км 6/0
[Ci fib]
-2.5 -4.0 89 -4 -4 1024.5 1021.2
15 18.04 штиль 0 20 км 3/0
[Ci fib]
-4.9 -5.8 93 -6 -6 1024.7 1021.4
18 18.04 СВ 1 20 км 3/0
[Ci fib]
-4.6 -5.7 92 -7 -7 1025.4 1022.1
21 18.04 ЮВ 1 50 км 9/0
[Ci]
-0.4 -4.1 76 -2 +1 1025.6 1022.4 -5.1 51
00 19.04 Ю 2 50 км 8/0
[Ci]
+3.1 -4.4 58 +1 +10 опасность
простуды
1025.8 1022.6
03 19.04 Ю 3 50 км 10/0
[Ci]
+2.8 -3.5 63 -1 +7 1025.9 1022.8
06 19.04 Ю 2 50 км 3/0
[Ci fib]
+3.5 -4.6 55 +1 +5 1025.9 1022.7
09 19.04 В 1 20 км 3/0
[Ci fib]
0.0 -4.7 71 -2 -2 1026.9 1023.7 +3.5
12 19.04 СВ 1 20 км 3/0
[Ci fib]
-3.5 -5.4 87 -6 -6 1027.0 1023.8
15 19.04 штиль 0 20 км 3/0
[Ci fib]
-6.4 -7.6 91 -7 -7 1027.4 1024.1
18 19.04 В 1 20 км 3/0
[Ci fib]
-4.7 -5.6 93 -7 -7 1028.1 1024.8
21 19.04 ЮВ 1 50 км 10/0
[Ci fib]
-0.5 -3.5 80 -2 +1 1028.9 1025.7 -6.4 51
00 20.04 Ю 1 50 км 10/0
[Ac und]
+4.0 -4.3 55 +3 +7 1028.7 1025.5
03 20.04 Ю 3 50 км 10/0
[Ac und]
+3.1 -4.4 58 -0 +3 1028.5 1025.3
06 20.04 З 3 20 км 10/10 600 м
[Sc]
+2.1 -3.7 65 -2 -2 1028.2 1025.0
09 20.04 СЗ 1 20 км 10/10 600 м
[Sc]
+1.3 -3.2 72 -0 -0 1028.6 1025.4 +4.0
12 20.04 штиль 0 10 км 10/10 600 м
[Sc]
+0.4 -2.7 80 -1 -1 1028.5 1025.3
15 20.04 СВ 1 10 км 10/10 600 м
[Sc]
+0.2 -3.0 79 -2 -2 1027.4 1024.2
18 20.04 штиль 0 10 км 10/10 600 м
[Sc]
-0.3 -2.8 83 -1 -1 1027.0 1023.8
21 20.04 СВ 1 10 км 10/10 600 м
[Sc]
+1.8 -3.8 66 0 0 1026.8 1023.6 -0.3 49
00 21.04 СВ 1 10 км 10/10 600 м
[Sc]
+3.4 -4.6 56 +2 +2 1026.2 1023.1
03 21.04 Ю 2 10 км 10/10 600 м
[Sc]
+2.9 -3.3 64 0 0 1025.2 1022.0
06 21.04 ЮЗ 2 10 км 10/10 600 м
[Sc]
+2.1 -3.6 66 -1 -1 1025.1 1021.9
09 21.04 ЮВ 1 10 км 9/9 600 м
[Sc]
+0.9 -4.1 69 -1 -1 1025.1 1021.9 +3.6
12 21.04 ЮВ 1 10 км 9/9 600 м
[Sc]
+0.1 -3.4 77 -2 -2 1024.9 1021.7
15 21.04 В 2 10 км 10/10 600 м
[Sc]
+0.3 -3.8 74 -3 -3 1024.4 1021.2
18 21.04 ЮВ 2 10 км 10/10 600 м
[Sc]
+0.6 -4.5 69 -3 -3 1023.3 1020.1
21 21.04 ЮВ 2 10 км 10/10 600 м
[Sc]
+1.3 -4.3 66 -2 -2 1022.9 1019.7 -0.1 46
00 22.04 ЮВ 3 10 км 10/10 600 м
[Sc]
+3.2 -4.3 58 -0 -0 1022.2 1019.0
03 22.04 ЮВ 3 10 км 8/8 600 м
[Sc]
+4.9 -4.1 52 +2 +4 1020.8 1017.7
06 22.04 Ю 2 10 км 10/10 600 м
[Sc]
+3.8 -2.2 65 +1 +1 1020.3 1017.2
09 22.04 ЮВ 4 10 км слаб. ливневой дождь 10/10 300 м
[Cb cap]
+1.0 -0.0 93 -4 -4 1020.4 1017.2 +5.1 0.0
12 22.04 Ю 2 10 км в посл. час ливневой дождь 10/10 300 м
[St]
+1.0 -0.5 90 -3 -3 1020.0 1016.9
15 22.04 ЮВ 2 10 км 10/10 300 м
[St]
+1.0 -0.7 88 -3 -3 1019.0 1015.8

 

Местоположение метеостанции Соболево (Камчатский край, Россия): широта 54.30 долгота 155.90 высота над уровнем моря 25 м.

В архиве по умолчанию представлена погода в Соболево за последнюю неделю. Архивные данные за месяц целиком и за предыдущие месяцы, начиная с января 2011 года, Вы можете получить, выбрав интересующий диапазон дат из раскрывающегося списка и нажав кнопку "Ввод!".


*Определитесь, кто Вы:
робот инопланетянин человек

Внимание! Время в таблицах - всемирное. Для получения местного времени необходимо прибавить поправку, которая равна 12 ч.

Смотрите также архив погоды в соседних городах и на ближайших метеорологических станциях:

Погода в Пущино (Камчатский край, Россия) (137 км)
Погода в Иче (Камчатский край, Россия) (145 км)
Погода в Большерецке (Камчатский край, Россия) (166 км)
Погода в Мильково (Камчатский край, Россия) (173 км)
Погода в Начиках (Камчатский край, Россия) (177 км)
Погода в Сосновке (Камчатский край, Россия) (208 км)
Погода в Петропавловск-Камч. 2 (Камчатский край, Россия) (218 км)
Погода в Долиновке (Камчатский край, Россия) (219 км)
Погода в Петропавловск-Камчатском (Камчатский край, Россия) (239 км)
Погода в Петропавловском Маяке (Камчатский край, Россия) (243 км)

Пояснения к столбцам:

Ветер - указаны скорость ветра в м/с - средняя за 10 мин, порывы в срок и между сроками (в фигурных скобках) и направление, откуда дует ветер: С - северный, СВ - северо-восточный, В - восточный, ЮВ - юго-восточный, Ю - южный, ЮЗ - юго-западный, З - западный, СЗ - северо-западный.
Видимость - горизонтальная дальность видимости в метрах или километрах. При видимости от 1 до 10 км при отсутствии осадков обычно наблюдается дымка, при ухудшении видимости до 1 км и менее - туман. В сухую погоду видимость может ухудшаться дымом, пылью или мглою.
Явления - указаны атмосферные явления, наблюдавшиеся в срок или в последний час перед сроком; фигурными скобками обозначены явления, наблюдавшиеся между сроками (за 1-3 часа до срока); квадратными скобками обозначены град или гололедные отложения с указанием их диаметра в мм.
Облачность - указаны через наклонную черту общая и нижняя облачность в баллах и высота нижней границы облаков в метрах; квадратными скобками обозначены формы облаков: Ci - перистые, Cs - перисто-слоистые, Cc - перисто-кучевые, Ac - высококучевые, As - высокослоистые, Sc - слоисто-кучевые, Ns - слоисто-дождевые, Cu - кучевые, Cb - кучево-дождевые. Подробнее классификацию облаков см. в Атласе облаков (PDF).
T - Температура воздуха - температура, измеренная на высоте 2 м над землей.
Td - Температура точки росы - температура, при понижении до которой содержащийся в воздухе водяной пар достигнет насыщения.
f - Относительная влажность воздуха - влажноcть воздуха, измеренная на высоте 2 м над землей.
Te - Эффективная температура - температура, которую ощущает одетый по сезону человек в тени. Характеристика душности погоды. При расчете учитывается влияние влажности воздуха и скорости ветра на теплоощущения человека.
Tes - Эффективная температура на солнце - температура, которую ощущает человек, с поправкой на солнечный нагрев. Характеристика знойности погоды. Зависит от высоты солнца над горизонтом, облачности и скорости ветра. Ночью, в пасмурную погоду, а также при ветре 12 м/с и более поправка равна нулю.
P - Атмосферное давление - приведенное к уровню моря атмосферное давление.
Po - Атмосферное давление - измеренное на уровне метеостанции атмосферное давление.
Tmin - Минимальная температура - минимум температуры воздуха на высоте 2 м над землей.
Tmax - Максимальная температура - максимум температуры воздуха на высоте 2 м над землей.
R - Количество осадков - Количество выпавших осадков за период времени, мм. При наведении курсора мыши на число - период времени, за который выпало указанное количество осадков.
R24 - Количество осадков - Количество выпавших осадков за 24 часа, мм.
S - Снежный покров - Высота снежного покрова, см. При наведении курсора мыши на число - состояние снежного покрова и степень покрытия местности в баллах.